Location: Angicourt
(49.3118°N, 2.5042°E)
Time: 23:39:10
(UTC+00:00)

Daily predictions for brighter satellites

Satellite Brightness Start Highest point End
(mag) Time Altitude Azimuth Time Altitude Azimuth Time Altitude Azimuth
Cosmos 2297 Rocket 3.8 20:39:10 10° SE 20:42:34 17° E 20:45:58 10° ENE
Aureole 3 4.0 20:39:06 10° S 20:43:42 67° E 20:49:29 10° NNE
Cosmos 1707 Rocket 3.7 20:39:33 10° S 20:43:59 85° W 20:48:26 10° N
Cosmos 1356 Rocket 3.8 20:39:55 10° SSW 20:44:06 70° WNW 20:48:18 10° N
Cosmos 1758 4.2 20:41:00 10° NNW 20:44:48 48° W 20:48:36 10° SSW
Cosmos 2219 Rocket 2.6 20:43:30 10° NNW 20:49:08 65° WSW 20:54:45 10° SSE
ATLAS CENTAUR R/B 3.9 20:49:39 10° W 20:52:36 24° NW 20:55:39 10° NNE
BREEZE-M DEB (TANK) 3.6 20:48:50 10° WSW 20:52:40 77° SSE 21:06:56 10° ENE
ATLAS 2AS CENTAUR R/B 3.8 20:48:13 10° NW 20:54:18 36° WSW 21:00:12 10° S
Landsat 4 3.8 20:52:14 10° SSE 20:55:34 52° ENE 20:58:54 10° N
Cosmos 1733 Rocket 3.8 20:52:50 10° NNW 20:57:09 52° W 21:01:27 10° S
NOSS 5 (C) 4.3 20:55:55 10° NW 20:59:04 69° SW 21:02:10 11° SSE
Cosmos 1455 2.2 20:56:03 10° N 20:59:31 57° ENE 21:02:59 10° SSE
Spot 2 Rocket 3.5 20:57:19 10° SSE 21:02:24 85° ENE 21:07:32 10° NNW
Cosmos 1408 4.2 21:01:34 10° ESE 21:03:10 14° E 21:04:48 10° NE
SPOT 3 Rocket 3.6 20:59:15 10° SSE 21:04:23 77° ENE 21:09:35 10° NNW
Resurs 01 Rocket 4.4 21:06:40 10° WSW 21:08:41 13° W 21:10:43 10° WNW
Iridium 51 4.4 21:06:15 10° S 21:10:29 75° E 21:14:29 10° N
Meteor 2-20 Rocket 4.5 21:04:46 10° N 21:10:57 86° W 21:16:52 10° S
SeaSat 1 2.5 21:08:35 11° SE 21:13:20 83° ENE 21:18:17 10° NNW
Cosmos 2360 Rocket 4.2 21:14:14 10° NW 21:18:27 22° W 21:22:39 10° SSW
Cosmos 158 Rocket 4.0 21:13:30 10° NNW 21:18:48 84° ENE 21:23:25 13° SSE
Cosmos 1953 2.3 21:15:08 10° NNW 21:18:57 76° W 21:22:42 10° S
Cosmos 1908 Rocket 3.5 21:14:51 10° N 21:19:13 89° ESE 21:23:22 11° S
COSMOS 2428 2.8 21:14:02 10° NNW 21:19:45 77° WSW 21:25:01 12° SSE
Cosmos 2208 Rocket 4.0 21:15:12 10° NNW 21:20:25 89° ENE 21:25:05 13° SSE
NOSS 8 (H) 4.5 21:16:54 10° SSW 21:20:42 53° SE 21:23:43 10° NE
Cosmos 1782 Rocket 3.9 21:18:53 10° N 21:23:08 53° ENE 21:26:41 14° SSE
CENTAUR R/B 3.7 21:23:46 13° SE 21:26:56 20° ESE 21:31:28 10° ENE
Ariane Rocket 3.3 21:22:47 10° S 21:27:50 64° WSW 21:32:54 10° NNW
Cosmos 1300 Rocket 3.9 21:24:16 10° N 21:28:30 50° ENE 21:31:51 15° SSE
EXPRESS MD2 1.8 21:26:45 10° W 21:29:21 82° SSW 21:30:59 16° ESE
Cosmos 2084 Rocket 3.8 21:27:48 10° SSW 21:31:51 40° SE 21:35:45 10° NE
Cosmos 1486 Rocket 4.1 21:32:28 10° S 21:37:33 59° ESE 21:42:40 10° NNE
Cosmos 1315 Rocket 3.8 21:35:08 10° SSW 21:38:58 46° WNW 21:42:51 10° N
Cosmos 405 Rocket 4.2 21:38:16 10° NNE 21:41:27 25° ENE 21:43:50 14° ESE
GP-B 3.3 21:39:27 10° N 21:43:49 59° E 21:47:06 17° SSE
MetOp-A 4.1 21:40:03 15° SSE 21:44:29 89° ENE 21:49:40 10° NNW
BREEZE-M DEB (TANK) 3.2 21:39:09 10° W 21:44:31 47° N 21:46:48 10° ENE
ARIANE 5 R/B 3.6 21:41:49 15° SE 21:44:57 36° ENE 21:48:58 10° N
NOSS 0 Rocket 4.1 21:39:50 10° NNW 21:46:04 72° WSW 21:51:08 16° SSE
SJ 16-02 3.7 21:42:36 10° WSW 21:46:11 25° NW 21:49:47 10° N
BlueWalker 3 2.7 21:44:08 10° W 21:47:49 54° NNW 21:51:31 10° ENE
Cosmos 371 Rocket 3.3 21:44:06 10° S 21:48:51 64° ESE 21:53:38 10° NNE
SL-4 R/B 3.2 21:46:07 10° W 21:49:24 26° SW 21:51:27 18° S
USA 234 3.4 21:44:03 10° ENE 21:50:25 52° SE 21:56:46 10° SSW
Terra 3.3 21:49:00 10° SSW 21:53:07 30° W 21:57:17 10° NNW
Spot 1 4.4 21:50:45 10° NNE 21:55:30 87° WNW 22:00:27 10° SSW
Okean 1-7 4.4 21:53:12 10° SW 21:57:12 36° WNW 22:01:13 10° N
Cosmos 1354 Rocket 4.5 21:55:11 17° S 21:58:59 44° ESE 22:03:59 10° NE
SL-16 R/B 3.3 21:53:51 10° NNW 21:59:06 36° NE 22:04:11 11° ESE
H-2A R/B 3.9 21:56:27 14° ESE 21:59:19 28° ENE 22:02:52 10° N
Cosmos 2237 Rocket 2.2 21:55:11 10° NNW 22:00:53 87° WSW 22:05:00 19° SSE
Landsat 5 3.6 21:56:51 10° N 22:01:00 76° WNW 22:05:08 11° SSW
Cosmos 1703 Rocket 4.4 21:58:16 10° SSW 22:02:35 49° WNW 22:06:55 10° N
COSMOS 2455 2.9 21:57:59 10° SW 22:04:01 83° NW 22:10:07 10° NE
Cosmos 1242 Rocket 4.1 22:02:38 10° SW 22:04:52 22° WNW 22:07:07 10° NNW
Cosmos 1745 Rocket 4.1 21:58:43 11° S 22:04:55 89° W 22:11:20 10° N
USA 281 3.6 22:00:04 14° SE 22:05:36 58° NE 22:12:02 10° NNW
CZ-4C R/B 2.0 22:01:38 10° SW 22:06:11 85° NW 22:12:02 10° NE
Cosmos 2227 Rocket 2.8 22:03:20 18° SSE 22:06:55 38° ESE 22:12:08 10° NE
Nadezhda 1 Rocket 4.2 22:01:41 10° NNW 22:07:54 68° W 22:13:03 15° S
Meteor 2-5 Rocket 4.0 22:05:17 18° SSE 22:09:29 55° E 22:15:06 10° NNE
Cosmos 2151 Rocket 4.5 22:07:29 10° N 22:11:36 37° ENE 22:14:08 20° SE
Cosmos 773 Rocket 4.2 22:09:26 10° NNW 22:14:33 64° WSW 22:18:03 20° S
Cosmos 1980 3.9 22:09:44 10° NNW 22:15:22 66° WSW 22:19:14 21° S
Okean 2 Rocket 4.0 22:12:05 10° N 22:16:19 39° ENE 22:18:55 20° SE
Cosmos 304 Rocket 3.8 22:13:19 10° SSW 22:18:01 85° WNW 22:22:49 10° NNE
Cosmos 2297 Rocket 2.2 22:20:09 10° SSW 22:25:48 88° WNW 22:31:30 10° NNE
ALOS 2 3.7 22:25:43 18° ESE 22:28:23 35° ENE 22:32:23 10° N
MINOTAUR 4 R/B 3.9 22:28:03 10° NNE 22:30:51 46° E 22:31:27 38° SE
CZ-2C R/B 3.6 22:29:46 10° NNE 22:34:14 86° ESE 22:37:07 22° SSW
Cosmos 1461 4.3 22:34:55 19° ESE 22:34:57 19° ESE 22:37:44 10° ENE
Cosmos 2098 Rocket 3.9 22:28:23 10° N 22:34:58 89° E 22:38:52 23° S
Cosmos 1703 3.2 22:33:06 23° SSW 22:35:16 69° WNW 22:38:57 10° N
Cosmos 1408 3.7 22:33:29 14° SW 22:35:35 30° WNW 22:38:17 10° N
NOSS 3-2 (A) 3.8 22:33:41 24° SSE 22:36:01 35° ESE 22:41:25 10° NE
Cosmos 2181 Rocket 4.0 22:31:39 10° N 22:37:49 74° E 22:41:46 23° SSE
Cosmos 2219 3.8 22:37:53 24° SSE 22:40:38 39° ESE 22:45:49 10° NE
Cosmos 1777 Rocket 4.1 22:39:06 13° SSW 22:43:53 76° WNW 22:49:11 10° NNE
H-2A R/B 4.1 22:42:06 10° ENE 22:44:00 13° E 22:45:13 11° ESE
Cosmos 332 Rocket 3.7 22:41:57 21° SSW 22:45:12 78° ESE 22:50:07 10° NNE
Cosmos 1825 2.4 22:44:58 34° SE 22:45:55 44° E 22:49:12 10° NNE
BREEZE-M DEB (TANK) 3.7 22:42:44 10° W 22:45:59 88° S 22:56:12 10° ESE
Cosmos 2263 Rocket 3.1 22:44:09 23° SE 22:46:26 31° ESE 22:51:16 10° NE
Meteor 1-24 Rocket 3.8 22:42:45 18° SSW 22:47:01 80° WNW 22:52:32 10° N
Cosmos 2221 Rocket 3.8 22:46:45 29° SSE 22:48:48 56° E 22:53:07 10° NNE
SeaSat 1 4.5 22:48:17 10° SW 22:51:19 17° WSW 22:54:30 10° WNW
Sich 1 Rocket 3.5 22:49:32 10° N 22:53:57 87° ENE 22:56:03 30° S
Okean 1 Rocket 3.3 22:51:04 10° N 22:55:25 60° ENE 22:57:31 29° SSE
Cosmos 1538 Rocket 4.0 22:50:32 10° NNW 22:55:47 79° ENE 22:58:51 26° SSE
PSLV R/B 3.9 22:52:36 10° N 22:56:37 76° WNW 22:58:45 26° SSW
Cosmos 1263 4.2 22:54:55 10° N 22:58:03 67° E 22:58:45 46° SE
Cosmos 1818 3.8 22:55:11 10° NW 23:00:41 71° NE 23:04:38 19° SE
Cosmos 1892 2.4 23:03:07 39° S 23:04:20 87° ESE 23:07:53 10° N
Spot 4 3.8 23:03:31 29° S 23:06:00 77° WSW 23:10:52 10° NNW
Cosmos 1025 Rocket 3.5 23:12:05 30° SSE 23:13:44 46° E 23:17:52 10° NNE
Nadezhda 3 Rocket 4.1 23:07:40 10° N 23:13:55 66° ENE 23:17:40 25° SSE
CENTAUR R/B 2.5 23:10:49 11° SW 23:16:21 89° WNW 23:23:37 10° NE
Cosmos 405 Rocket 4.1 23:13:16 10° NNW 23:16:33 28° W 23:18:05 21° SW
Cosmos 1975 Rocket 4.4 23:15:39 21° SE 23:17:22 28° E 23:21:07 10° NNE
ARIANE 5 R/B 4.0 23:19:17 19° SW 23:21:25 27° W 23:25:10 10° NW
Cosmos 923 Rocket 4.3 23:17:34 10° NNW 23:22:48 62° ENE 23:26:01 23° SE
Cosmos 1455 Rocket 3.5 23:20:15 10° N 23:24:37 52° ENE 23:26:44 28° SE
BlueWalker 3 2.9 23:22:45 10° WNW 23:26:23 47° N 23:30:01 10° E
Cosmos 1328 3.6 23:25:24 38° S 23:26:48 85° ESE 23:30:42 10° N
Cosmos 1898 Rocket 3.8 23:25:20 30° SSE 23:27:37 52° ESE 23:32:38 10° NNE
Cosmos 1378 Rocket 4.3 23:25:05 22° SW 23:27:38 47° WNW 23:31:55 10° N
Aureole 1 Rocket 3.1 23:26:55 35° S 23:28:32 67° ESE 23:33:35 10° NNE
Cosmos 2184 Rocket 4.0 23:26:26 25° S 23:30:25 86° W 23:36:52 10° N
Meteor 1-21 Rocket 4.4 23:27:44 28° SSE 23:30:43 60° E 23:36:15 10° NNE
Cosmos 1674 Rocket 4.1 23:29:17 24° SW 23:31:37 50° WNW 23:35:51 10° N
USA 234 3.6 23:27:06 10° ENE 23:33:36 68° NNW 23:40:05 10° WSW
H-2A R/B 3.5 23:32:26 25° SW 23:34:08 35° W 23:37:59 10° NNW
SL-16 R/B 2.7 23:37:55 10° NW 23:43:23 47° WSW 23:46:02 28° SSW
Cosmos 2237 Rocket 4.2 23:40:54 10° WNW 23:44:04 15° W 23:46:48 11° SW
Cosmos 1603 4.5 23:43:21 10° NNW 23:48:57 49° NE 23:54:08 12° SE
Cosmos 2154 Rocket 4.1 23:45:18 25° SSW 23:49:08 78° W 23:55:30 10° N
Cosmos 1943 3.3 23:44:21 10° NNW 23:50:00 72° ENE 23:53:53 21° SE
USA 281 4.1 23:46:56 22° SSW 23:50:22 35° WSW 23:56:19 10° NW
Cosmos 2227 Rocket 3.2 23:45:33 10° WSW 23:50:55 43° NW 23:56:20 10° NNE
Cosmos 1867 4.5 23:50:23 26° SSE 23:52:18 33° ESE 23:57:09 10° NE
Meteor 2-1 Rocket 4.5 23:47:10 10° N 23:53:02 68° ENE 23:56:34 24° SSE
PSLV R/B 3.4 23:48:58 10° NNE 23:53:10 84° WNW 23:54:55 34° SSW
Cosmos 2082 3.6 23:50:39 25° SSW 23:54:03 90° ESE 23:59:42 10° NNE
